DW8534 Weather Reports


Display with metric or nautical units.
time (UTC)temp
F
wind
direction
speed
MPH
gust
MPH
rain 1hr
in
rain 24hr
in
rain mn
in
humidity
%
barometer
mb
20260904144537 81 186 3.0 0.0 0.00 0.00 0.00 87 1010.8
20260904143032 79 148 4.0 0.0 0.00 0.00 0.00 90 1010.6
20260904141529 78 143 4.0 0.0 0.00 0.00 0.00 92 1010.6
20260904140031 78 107 4.0 0.0 0.00 0.00 0.00 92 1010.7
20260904134524 77 120 4.0 0.0 0.00 0.00 0.00 93 1010.6
20260904133023 77 128 3.0 0.0 0.00 0.00 0.00 93 1010.5
20260904131522 77 111 3.0 0.0 0.00 0.00 0.00 93 1010.4
20260904130021 76 108 2.0 0.0 0.00 0.00 0.00 93 1010.1
20260904124521 76 104 3.0 0.0 0.00 0.00 0.00 93 1010.0
20260904123020 75 107 2.0 0.0 0.00 0.00 0.00 93 1009.9
20260904121520 75 107 3.0 0.0 0.00 0.00 0.00 93 1009.7
20260904120025 75 105 2.0 0.0 0.00 0.00 0.00 93 1009.5
20260904114518 75 104 3.0 0.0 0.00 0.00 0.00 93 1009.5
20260904113020 75 104 2.0 0.0 0.00 0.00 0.00 93 1009.4
20260904111517 75 102 3.0 0.0 0.00 0.00 0.00 92 1009.4
20260904110030 75 107 3.0 0.0 0.00 0.00 0.00 92 1009.4
20260904104516 75 107 2.0 0.0 0.00 0.00 0.00 92 1009.4
20260904103017 75 106 1.0 0.0 0.00 0.00 0.00 92 1009.0
20260904101516 75 106 0.0 0.0 0.00 0.00 0.00 92 1008.9
20260904100013 76 106 1.0 0.0 0.00 0.00 0.00 91 1008.9
20260904094518 76 106 1.0 0.0 0.00 0.00 0.00 91 1008.9
20260904093012 76 106 1.0 0.0 0.00 0.00 0.00 91 1008.9
20260904091518 76 105 1.0 0.0 0.00 0.00 0.00 91 1008.9
20260904090011 76 106 2.0 0.0 0.00 0.00 0.00 91 1008.9
20260904084513 76 111 2.0 0.0 0.00 0.00 0.00 91 1008.9
20260904083011 76 111 2.0 0.0 0.00 0.00 0.00 90 1008.9
20260904081510 76 111 1.0 0.0 0.00 0.00 0.00 90 1008.9
20260904080009 76 111 1.0 0.0 0.00 0.00 0.00 90 1008.9
20260904074514 76 111 1.0 0.0 0.00 0.00 0.00 90 1008.9
20260904073006 76 111 1.0 0.0 0.00 0.00 0.00 90 1008.9
20260904071505 76 111 2.0 0.0 0.00 0.00 0.00 89 1008.9
20260904070010 76 109 2.0 0.0 0.00 0.00 0.00 89 1009.1
20260904064503 76 111 2.0 0.0 0.00 0.00 0.00 89 1009.3
20260904063002 77 119 2.0 0.0 0.00 0.00 0.00 89 1009.2
20260904061501 77 121 2.0 0.0 0.00 0.00 0.00 88 1008.9
20260904060100 77 120 2.0 0.0 0.00 0.00 0.00 88 1009.1
20260904054600 77 123 3.0 0.0 0.00 0.00 0.00 88 1009.3
20260904053058 77 101 3.0 0.0 0.00 0.00 0.00 87 1009.1
20260904051558 77 115 3.0 0.0 0.00 0.00 0.00 86 1009.1
20260904050054 77 137 4.0 0.0 0.00 0.00 0.00 85 1009.1
20260904044554 78 126 4.0 0.0 0.00 0.00 0.00 84 1009.2
20260904043057 78 119 3.0 0.0 0.00 0.00 0.00 83 1009.2
20260904041556 78 112 3.0 0.0 0.00 0.00 0.00 82 1009.4
20260904040052 78 105 4.0 0.0 0.00 0.00 0.00 81 1009.4
20260904034557 78 87 5.0 0.0 0.00 0.00 0.00 80 1009.4
20260904033051 78 109 4.0 0.0 0.00 0.00 0.00 78 1009.2
20260904031551 79 107 4.0 0.0 0.00 0.00 0.00 76 1009.3
20260904030050 79 104 3.0 0.0 0.00 0.00 0.00 75 1009.0
20260904024552 79 100 4.0 0.0 0.00 0.00 0.00 74 1008.8
20260904023056 80 103 4.0 0.0 0.00 0.00 0.00 75 1008.6
20260904021549 80 110 4.0 0.0 0.00 0.00 0.00 75 1008.3
20260904020049 80 104 4.0 0.0 0.00 0.00 0.00 76 1008.1
20260904014549 81 109 4.0 0.0 0.00 0.00 0.00 76 1007.9
20260904013048 81 112 5.0 0.0 0.00 0.00 0.00 75 1007.8
20260904011606 82 109 4.0 0.0 0.00 0.00 0.00 74 1007.7
20260904010052 82 122 7.0 0.0 0.00 0.00 0.00 75 1007.6
20260904004547 84 111 7.0 0.0 0.00 0.00 0.00 73 1007.7
20260904003046 85 118 5.0 0.0 0.00 0.00 0.00 66 1007.6
20260904001547 86 109 5.0 0.0 0.00 0.00 0.00 63 1007.4
20260904000052 86 121 6.0 0.0 0.00 0.00 0.00 61 1007.2
20260903234547 87 151 5.0 0.0 0.00 0.00 0.00 60 1007.2
20260903233044 87 131 6.0 0.0 0.00 0.00 0.00 62 1007.1
20260903231547 87 116 5.0 0.0 0.00 0.00 0.00 62 1007.1
20260903230047 88 111 7.0 0.0 0.00 0.00 0.00 62 1007.1
20260903224544 88 136 5.0 0.0 0.00 0.00 0.00 62 1007.0
20260903223043 88 132 6.0 0.0 0.00 0.00 0.00 63 1007.1
20260903221542 88 109 5.0 0.0 0.00 0.00 0.00 63 1007.0
20260903220041 87 112 4.0 0.0 0.00 0.00 0.00 65 1007.1
20260903214543 87 102 4.0 0.0 0.00 0.00 0.00 66 1007.1
20260903213052 88 100 5.0 0.0 0.00 0.00 0.00 65 1007.1
20260903211545 87 107 5.0 0.0 0.00 0.00 0.00 66 1007.3
20260903210039 88 138 5.0 0.0 0.00 0.00 0.00 66 1007.4
20260903204538 88 150 6.0 0.0 0.00 0.00 0.00 64 1007.6
20260903203103 90 143 5.0 0.0 0.00 0.00 0.00 62 1007.7
20260903201538 88 146 5.0 0.0 0.00 0.00 0.00 65 1007.7
20260903200034 88 152 6.0 0.0 0.00 0.00 0.00 65 1007.7
20260903194536 88 144 7.0 0.0 0.00 0.00 0.00 66 1007.8
20260903193037 87 193 7.0 0.0 0.00 0.00 0.00 67 1008.0
20260903191532 87 174 7.0 0.0 0.00 0.00 0.00 68 1008.2
20260903190031 88 152 9.0 0.0 0.00 0.00 0.00 67 1008.6
20260903184531 87 130 8.0 0.0 0.00 0.00 0.00 70 1008.7
20260903183028 85 180 9.0 0.0 0.00 0.00 0.00 71 1009.1
20260903181523 84 140 8.0 0.0 0.00 0.00 0.00 75 1009.2
20260903180025 83 144 9.0 0.0 0.00 0.00 0.00 76 1009.3
20260903174524 83 145 8.0 0.0 0.00 0.00 0.00 77 1009.6
20260903173020 83 127 9.0 0.0 0.00 0.00 0.00 77 1009.8
20260903171520 83 146 9.0 0.0 0.00 0.00 0.00 77 1009.8
20260903170018 83 136 8.0 0.0 0.00 0.00 0.00 79 1009.8
20260903164518 84 118 8.0 0.0 0.00 0.00 0.00 78 1009.8
20260903163016 83 128 7.0 0.0 0.00 0.00 0.00 79 1009.8
20260903161515 83 146 6.0 0.0 0.00 0.00 0.00 79 1009.7
20260903160014 83 147 6.0 0.0 0.00 0.00 0.00 80 1009.8
20260903154511 82 142 6.0 0.0 0.00 0.00 0.00 81 1009.7
20260903153010 82 139 6.0 0.0 0.00 0.00 0.00 82 1009.7
20260903151508 81 136 5.0 0.0 0.00 0.00 0.00 83 1009.4
20260903150011 81 144 5.0 0.0 0.00 0.00 0.00 83 1009.7